Location: Seattle
(47.6064°N, 122.3308°W)
Time: 06:09:50
(UTC-07:00)

AO-7 - Pass Details

Date: 20 March 2023
Orbit: 1439 x 1459 km, 101.9° (Epoch: 07 June)

Event Time Altitude Azimuth Distance (km) Brightness Sun altitude
Rises 04:01:23 0° 31° (NNE) 4,570 ? -30.7°
Reaches altitude 10° 04:06:16 10° 56° (NE) 3,582 ? -30.0°
Maximum altitude 04:10:07 14° 84° (E) 3,286 ? -29.5°
Drops below altitude 10° 04:13:57 10° 112° (ESE) 3,565 ? -29.0°
Sets 04:18:44 0° 137° (SE) 4,533 ? -28.4°
